Regional Weather Roundup
Issued by NWS

Home | Current Version | Previous Version | Text Only | Print | Product List | Glossary Off
Versions: 1 2 3 4 5 6 7 8 9 10 11 12 13 14 15 16 17 18 19 20 21 22 23 24 25 26 27

000
ASUS45 KPSR 111010
RWRAZ

ARIZONA HOURLY REGIONAL WEATHER ROUNDUP
NATIONAL WEATHER SERVICE PHOENIX AZ
300 AM MST MON DEC 11 2017

NOTE: FAIR INDICATES FEW OR NO CLOUDS BELOW 12,000 FEET WITH NO
SIGNIFICANT WEATHER AND/OR OBSTRUCTIONS TO VISIBILITY.

AZZ001>003-036-111100-
NORTHWEST ARIZONA

CITY           SKY/WX    TMP DP  RH WIND       PRES   REMARKS
BULLHEAD CITY  PTCLDY    63   5  10 N23G31    30.26S
KINGMAN        PTCLDY    40  -1  18 NE5       30.36S
$$

AZZ004>008-015-016-018-111100-
NORTH CENTRAL ARIZONA

CITY           SKY/WX    TMP DP  RH WIND       PRES   REMARKS
GRAND CANYON   MOCLDY    21  -9  26 NE6       30.48S WCI  13
WILLIAMS       MOCLDY    32 -15  12 S7        30.44S WCI  26
PRESCOTT       MOCLDY    28  -1  28 SW3       30.40R
FLAGSTAFF      MOCLDY    19  -7  31 CALM      30.48S
PAYSON         MOCLDY    46 -13   8 E5        30.39S
PAGE           CLOUDY    28  13  53 SW3       30.51S
$$

AZZ009>014-017-111100-
NORTHEAST ARIZONA

CITY           SKY/WX    TMP DP  RH WIND       PRES   REMARKS
WINSLOW        CLOUDY    17  -5  37 E3        30.50R
SAINT JOHNS    CLOUDY    20   0  41 CALM      30.48R
WINDOW ROCK    MOCLDY     7 -10  46 CALM      30.50S
SHOW LOW       MOCLDY    21   1  42 CALM      30.49S
$$

AZZ540-542>544-546-548-111100-
GREATER PHOENIX AREA

CITY           SKY/WX    TMP DP  RH WIND       PRES   REMARKS
PHOENIX        CLOUDY    58  17  20 E3        30.21S
BUCKEYE        CLOUDY    63   5  10 CALM      30.21S
LUKE AFB       CLOUDY    50  23  34 NW7       30.21S
DEER VALLEY    CLOUDY    64  -2   7 E7        30.23R
SCOTTSDALE     CLOUDY    62  10  13 E3        30.24S
$$

AZZ539-553-111100-
SOUTHWEST MARICOPA COUNTY AND PINAL COUNTY

CITY           SKY/WX    TMP DP  RH WIND       PRES   REMARKS
CASA GRANDE    NOT AVBL
$$

AZZ503-504-507>509-111100-
SOUTHEAST ARIZONA

CITY           SKY/WX    TMP DP  RH WIND       PRES   REMARKS
TUCSON         CLOUDY    60  15  17 SE17      30.27S
DAVIS-MONTHAN  CLOUDY    58  16  19 SE8       30.25R
NOGALES        CLOUDY    50  16  25 NE7       30.29S
SIERRA VISTA   CLOUDY    44  13  28 NE5       30.35S
DOUGLAS        MOCLDY    37  14  38 N8        30.35R WCI  31
SAFFORD        CLOUDY    47  10  22 SE9       30.36F
$$

AZZ532-111100-
SOUTHWEST ARIZONA

CITY           SKY/WX    TMP DP  RH WIND       PRES   REMARKS
YUMA           CLOUDY    61  16  17 NE8       30.17S
$$

CAZ041-043-047-048-061-525>527-560>570-111100-
SOUTHERN CALIFORNIA

CITY           SKY/WX    TMP DP  RH WIND       PRES   REMARKS
DOWNTOWN L.A.  PTCLDY    57  26  30 CALM      30.16S
L.A. AIRPORT   MOCLDY    63  18  17 NE3       30.17R
SAN DIEGO      MOCLDY    63  18  17 N3        30.15S
BURBANK        PTCLDY    61  14  16 CALM      30.17F
ONTARIO        MOCLDY    56  17  21 N7        30.18S
RIVERSIDE      MOCLDY    58  17  20 NE7       30.19S
PALM SPRINGS   MOCLDY    61  19  19 CALM      30.22S
EL CENTRO NAS  MOCLDY    54  13  19 W3        30.20S
IMPERIAL       MOCLDY    53  19  26 W6        30.17F
BLYTHE         CLOUDY    56   7  14 VRB6      30.22S
NEEDLES        PTCLDY    56   5  13 NW8       30.29R
$$

NVZ020-UTZ003-111100-
SOUTHERN NEVADA-UTAH

CITY           SKY/WX    TMP DP  RH WIND       PRES   REMARKS
LAS VEGAS      MOCLDY    44   6  21 SW6       30.36S
SALT LAKE CITY PTCLDY    23  20  88 CALM      30.61S
$$

NMZ009-TXZ055-111100-
NEW MEXICO-WEST TEXAS

CITY           SKY/WX    TMP DP  RH WIND       PRES   REMARKS
ALBUQUERQUE    CLOUDY    28   4  35 N5        30.47S WCI  23
EL PASO        MOCLDY    36  29  75 N6        30.40F WCI  31
$$


........................KEY........................
SKY/WX - SKY CONDITION/WEATHER
TMP    - TEMPERATURE IN FAHRENHEIT
DP     - DEW POINT IN FAHRENHEIT
RH     - RELATIVE HUMIDITY IN PERCENT
WIND   - DIRECTION AND SPEED IN MILES PER HOUR (MPH)
VRB    - VARIABLE WIND DIRECTION
PRES   - MEAN SEA LEVEL PRESSURE IN INCHES OF MERCURY
         F - FALLING PRESSURE   R - RISING PRESSURE
         S - STEADY PRESSURE
VSB    - VISIBILITY IN MILES
HX     - HEAT INDEX IN FAHRENHEIT
WCI    - WIND CHILL INDEX IN FAHRENHEIT
TC     - TEMPERATURE IN CELSIUS WHICH IS ALSO KNOWN AS
         TEMPERATURE IN CENTIGRADE
AFB    - AIR FORCE BASE
         LUKE AFB IS LUKE AIR FORCE BASE
         DAVIS-MONTHAN IS DAVIS-MONTHAN AIR FORCE BASE
NAS    - NAVAL AIR STATION
         EL CENTRO NAS IS EL CENTRO NAVAL AIR STATION
N/A    - NOT AVAILABLE





USA.gov is the U.S. government's official web portal to all federal, state and local government web resources and services.